Satellite-Ground Cal/Val Region Overpasses Predictions

Prediction of Satellite NPP Overpassing Cal/Val Region: PacNW

Region Location: (Latitude: 10.00, Longitude: 139.50) to (Latitude: 22.70, Longitude: 165.60).

Table of predicted overpasses for the next 14.0 days since TLE Epoch: 7/15/2023
Interval Starting Time Starting Location Ending Time Ending Location
1 07/15/2023 15:57:04 ( 22.68, 146.03) 07/15/2023 16:00:39 ( 10.06, 143.03)
2 07/16/2023 03:06:09 ( 10.00, 153.57) 07/16/2023 03:09:45 ( 22.68, 150.56)
3 07/16/2023 15:38:03 ( 22.67, 150.78) 07/16/2023 15:41:38 ( 10.04, 147.79)
4 07/17/2023 02:47:07 ( 10.01, 158.32) 07/17/2023 02:50:43 ( 22.69, 155.31)
5 07/17/2023 15:19:01 ( 22.65, 155.53) 07/17/2023 15:22:36 ( 10.03, 152.54)
6 07/18/2023 02:28:06 ( 10.03, 163.07) 07/18/2023 02:31:41 ( 22.65, 160.08)
7 07/18/2023 14:59:59 ( 22.70, 160.30) 07/18/2023 15:03:35 ( 10.02, 157.29)
8 07/19/2023 02:11:47 ( 19.55, 165.60) 07/19/2023 02:12:40 ( 22.66, 164.83)
9 07/19/2023 03:50:34 ( 10.04, 142.45) 07/19/2023 03:54:05 ( 22.43, 139.51)
10 07/19/2023 14:40:57 ( 22.68, 165.05) 07/19/2023 14:44:33 ( 10.00, 162.04)
11 07/19/2023 16:22:27 ( 22.68, 139.67) 07/19/2023 16:22:38 ( 22.03, 139.51)
12 07/20/2023 03:31:32 ( 10.00, 147.21) 07/20/2023 03:35:08 ( 22.68, 144.20)
13 07/20/2023 16:03:26 ( 22.66, 144.42) 07/20/2023 16:07:01 ( 10.04, 141.43)
14 07/21/2023 03:12:31 ( 10.02, 151.96) 07/21/2023 03:16:07 ( 22.70, 148.95)
15 07/21/2023 15:44:24 ( 22.65, 149.17) 07/21/2023 15:47:59 ( 10.02, 146.18)
16 07/22/2023 02:53:29 ( 10.03, 156.72) 07/22/2023 02:57:04 ( 22.66, 153.72)
17 07/22/2023 15:25:22 ( 22.69, 153.94) 07/22/2023 15:28:58 ( 10.01, 150.93)
18 07/23/2023 02:34:28 ( 10.05, 161.47) 07/23/2023 02:38:03 ( 22.68, 158.47)
19 07/23/2023 15:06:20 ( 22.67, 158.69) 07/23/2023 15:09:55 ( 10.05, 155.69)
20 07/24/2023 02:16:12 ( 12.78, 165.60) 07/24/2023 02:19:01 ( 22.69, 163.22)
21 07/24/2023 03:56:55 ( 10.02, 140.85) 07/24/2023 03:58:34 ( 15.84, 139.51)
22 07/24/2023 14:47:19 ( 22.65, 163.44) 07/24/2023 14:50:54 ( 10.03, 160.44)
23 07/25/2023 03:37:54 ( 10.04, 145.60) 07/25/2023 03:41:29 ( 22.66, 142.61)
24 07/25/2023 14:31:22 ( 11.77, 165.60) 07/25/2023 14:31:52 ( 10.01, 165.19)
25 07/25/2023 16:09:46 ( 22.68, 142.83) 07/25/2023 16:13:22 ( 10.00, 139.82)
26 07/26/2023 03:18:51 ( 10.00, 150.37) 07/26/2023 03:22:27 ( 22.68, 147.36)
27 07/26/2023 15:50:45 ( 22.66, 147.58) 07/26/2023 15:54:20 ( 10.04, 144.58)
28 07/27/2023 02:59:50 ( 10.02, 155.12) 07/27/2023 03:03:25 ( 22.65, 152.12)
29 07/27/2023 15:31:43 ( 22.70, 152.34) 07/27/2023 15:35:19 ( 10.02, 149.33)
30 07/28/2023 02:40:48 ( 10.05, 159.87) 07/28/2023 02:44:23 ( 22.67, 156.87)
31 07/28/2023 15:12:41 ( 22.67, 157.09) 07/28/2023 15:16:16 ( 10.05, 154.09)
